[[{"header":{"parameterUnit":"m.s-1","parameterCategory":1,"la1":30.2991,"la2":30.254,"lo1":-89.0895,"lo2":-89.0444,"dy":0.0017,"dx":0.0017,"nx":28,"ny":28,"refTime":"2025-05-30T09:00:00:Z","depth":0,"parameterNumber":2,"parameterNumberName":"U-component_of_WINDS"},"data":[0,0,0,0,0,0,0,0,0,0,0,0,0,0,0,0,0,0,0,0,0,0,0,0,0,0,0,0,0,0,0,0,0,0,0,0,0,0,0,0,0,0,0,0,0,0,0,0,0,0,0,0,0,0,0,0,0,0,1.9034,1.9034,0,1.9034,1.9034,1.9034,1.8959,1.8957,1.8955,1.8953,1.8953,1.8955,1.8957,0,0,0,0,0,0,0,0,0,0,0,0,0,1.8972,1.8973,1.9034,1.9034,1.9034,1.9034,1.9034,1.9034,1.8959,1.8957,1.8954,1.8952,1.8953,1.8955,1.8957,0,0,0,0,0,0,0,0,0,0,0,0,0,1.8988,1.8974,1.9034,1.8997,1.8994,1.9034,1.9034,1.9034,1.896,1.8957,1.8954,1.8951,1.8952,1.8955,1.8957,1.9034,0,0,1.8966,1.8967,0,0,0,0,0,0,0,0,1.8987,1.899,1.9003,1.9,1.8996,1.8993,1.9012,1.9034,1.896,1.8973,1.8953,1.895,1.8969,1.897,1.8977,1.9034,1.9034,1.8966,1.8968,1.8969,1.897,0,0,0,0,0,0,0,1.8986,1.899,1.9034,1.9003,1.8999,1.8981,1.898,1.9016,1.8988,1.8971,1.8966,1.8967,1.8967,1.8974,1.8976,1.9034,1.8966,1.8969,1.897,1.8971,1.9156,1.9159,0,0,0,0,0,0,1.899,1.899,1.9034,1.9034,1.8984,1.8984,1.8983,1.8997,1.8987,1.8982,1.8969,1.8963,1.8971,1.8973,1.8976,1.9066,1.8969,1.8972,1.8973,1.9153,1.9157,1.916,0,0,0,0,0,0,1.8989,1.8995,1.9034,1.901,1.9014,1.8989,1.9005,1.8999,1.9006,1.8985,1.898,1.8982,1.8969,1.8972,1.902,1.9065,1.8973,1.8975,1.9149,1.9154,1.9158,1.9246,0,0,0,0,0,0,1.8987,1.8995,1.9023,1.9012,1.9016,1.9079,1.9008,1.9001,1.9011,1.9003,1.8996,1.8992,1.8967,1.9017,1.9023,1.9067,1.8978,1.9145,1.9151,1.9157,1.9239,1.9253,1.9266,0,0,0,0,0,1.8985,1.9047,1.9025,1.9031,1.905,1.9081,1.9083,1.9053,1.9015,1.9044,1.9031,1.8992,1.9059,1.9022,1.9029,1.9074,1.9142,1.9149,1.9156,1.9233,1.9251,1.9265,0,0,0,0,0,0,1.9064,1.9045,1.902,1.908,1.9083,1.9068,1.9103,1.9072,1.9086,1.9078,1.904,1.9039,1.9094,1.9089,1.9048,1.9149,1.9094,1.9103,1.915,1.9166,1.9179,1.918,1.898,0,0,0,0,0,1.9089,1.9115,1.9097,1.9152,1.9154,1.9129,1.9141,1.9118,1.9119,1.912,1.911,1.9114,1.9135,1.915,1.9169,1.9238,1.9236,1.9273,1.9286,1.9297,1.9305,1.9343,1.936,1.9184,1.9184,1.9184,0,0,1.9139,1.9132,1.9151,1.9167,1.9167,1.9196,1.913,1.9163,1.9184,1.9125,1.917,1.9164,1.9165,1.9225,1.925,1.9222,1.9354,1.9306,1.9315,1.9318,1.9353,1.9369,1.9384,1.9189,1.9188,1.9187,0,0,1.9246,1.9243,1.9289,1.929,1.9291,1.9273,1.9285,1.9276,1.9269,1.9314,1.9271,1.9296,1.9334,1.9337,1.9343,1.9454,1.942,1.9461,1.9531,1.9568,1.9582,1.9594,1.9635,1.965,1.947,1.947,1.947,0,1.9309,1.935,1.9317,1.9353,1.9362,1.931,1.9357,1.936,1.9367,1.9375,1.9343,1.9391,1.9388,1.9448,1.9476,1.9482,1.9495,1.9462,1.9583,1.9594,1.9605,1.9644,1.9659,1.9475,1.9474,1.9474,1.9473,0,1.9428,1.9458,1.9495,1.9503,1.9517,1.9558,1.9532,1.955,1.9525,1.9512,1.956,1.9555,1.9572,1.9585,1.9561,1.9643,1.9626,1.9589,1.9533,1.9628,1.9663,1.9678,1.9482,1.9481,1.9479,1.9478,0,0,1.9584,1.9574,1.9589,1.9593,1.959,1.9613,1.9653,1.967,1.9687,1.9693,1.9727,1.9761,1.9728,1.9735,1.9712,1.9745,1.9835,1.9704,1.9704,1.973,1.9926,1.9954,1.9972,1.9812,1.9815,1.9817,1.9927,0,1.9689,1.9756,1.9728,1.9798,1.9826,1.9778,1.9813,1.9815,1.9805,1.9827,1.9815,1.9841,1.9794,1.9799,1.9829,1.9818,1.9874,1.9809,1.9844,1.9846,1.9846,1.999,2.002,2.0123,1.994,1.9942,1.9944,0,1.9819,1.9832,1.9906,1.99,1.991,1.9942,1.9957,1.9979,1.9982,1.9971,1.9981,1.9951,1.9991,1.9935,1.9991,1.9947,1.996,1.9957,1.996,1.9963,1.9901,1.9998,2.0155,2.0171,1.9965,1.9964,1.9962,0,1.9927,1.9963,2.0012,2.0016,2.001,2.0034,2.0033,2.0033,2.0046,2.0059,2.0067,2.0085,2.0095,2.011,2.0086,2.0048,2.0146,2.0087,2.0139,2.014,2.0162,2.0161,2.0325,2.0169,2.0169,2.0169,2.0169,0,2.0047,2.0094,2.006,2.009,2.0142,2.011,2.0162,2.0156,2.0157,2.0185,2.0145,2.0173,2.0139,2.0164,2.0146,2.0195,2.02,2.0194,2.0188,2.0198,2.0199,2.0206,2.0198,2.0173,2.0172,2.0171,2.0171,0,2.0176,2.0155,2.0206,2.0196,2.0195,2.0234,2.0226,2.0255,2.0241,2.0279,2.0285,2.0265,2.0293,2.027,2.0297,2.0285,2.0351,2.0335,2.035,2.0346,2.04,2.0395,2.0574,2.0597,2.0426,2.0428,2.0429,0,2.0254,2.029,2.0285,2.0301,2.0303,2.033,2.0343,2.0313,2.0329,2.0336,2.0364,2.0388,2.0406,2.0453,2.0441,2.0462,2.0447,2.0508,2.0449,2.0459,2.0449,2.0448,2.0452,2.052,2.0522,2.0524,2.0525,0,2.0396,2.0385,2.0405,2.0423,2.0441,2.0453,2.0463,2.0479,2.0448,2.0468,2.0496,2.051,2.0539,2.0564,2.0581,2.058,2.0549,2.0544,2.0557,2.0567,2.0575,2.0573,2.0383,2.054,2.0538,2.0537,2.0536,2.0536,2.0503,2.0533,2.0534,2.0559,2.0564,2.0574,2.06,2.0591,2.0614,2.0634,2.0616,2.065,2.0654,2.0673,2.0677,2.0704,2.0679,2.0698,2.0703,2.0708,2.0716,2.057,2.0707,2.0707,2.0706,2.0706,2.0705,0,2.0643,2.0643,2.0666,2.0681,2.0701,2.0669,2.0679,2.0698,2.0728,2.0734,2.0753,2.0787,2.0812,2.0802,2.0824,2.0848,2.0834,2.0855,2.0853,2.0854,2.0737,2.0724,2.0866,2.0866,2.0866,2.0866,2.0866,2.0866,2.0719,2.0768,2.0757,2.0809,2.0807,2.0841,2.0849,2.0859,2.0864,2.0903,2.0923,2.0917,2.0917,2.094,2.0962,2.0958,2.0969,2.0995,2.0987,2.0878,2.0862,2.0847,2.0834,2.0998,2.0998,2.1102,2.1103,2.1104]},{"header":{"parameterUnit":"m.s-1","parameterCategory":1,"la1":30.2991,"la2":30.254,"lo1":-89.0895,"lo2":-89.0444,"dy":0.0017,"dx":0.0017,"nx":28,"ny":28,"refTime":"2025-05-30T09:00:00:Z","depth":0,"parameterNumber":3,"parameterNumberName":"V-component_of_WINDS"},"data":[0,0,0,0,0,0,0,0,0,0,0,0,0,0,0,0,0,0,0,0,0,0,0,0,0,0,0,0,0,0,0,0,0,0,0,0,0,0,0,0,0,0,0,0,0,0,0,0,0,0,0,0,0,0,0,0,0,0,-2.9322,-2.9323,0,-2.9363,-2.9364,-2.9364,-2.9337,-2.9335,-2.9334,-2.9333,-2.9374,-2.9376,-2.9378,0,0,0,0,0,0,0,0,0,0,0,0,0,-2.9217,-2.9219,-2.9322,-2.9323,-2.9323,-2.9363,-2.9364,-2.9364,-2.9337,-2.9335,-2.9334,-2.9332,-2.9373,-2.9376,-2.9378,0,0,0,0,0,0,0,0,0,0,0,0,0,-2.9261,-2.922,-2.9322,-2.9314,-2.9314,-2.9363,-2.9364,-2.9365,-2.9337,-2.9335,-2.9334,-2.9332,-2.9372,-2.9375,-2.9379,-2.9437,0,0,-2.9389,-2.9391,0,0,0,0,0,0,0,0,-2.9258,-2.9265,-2.9315,-2.9315,-2.9315,-2.9343,-2.9342,-2.9389,-2.9338,-2.9328,-2.9333,-2.9331,-2.9365,-2.9369,-2.9381,-2.9439,-2.9441,-2.9389,-2.9391,-2.9393,-2.9394,0,0,0,0,0,0,0,-2.9255,-2.9263,-2.9338,-2.9316,-2.9316,-2.9308,-2.9312,-2.935,-2.9357,-2.9329,-2.9327,-2.9333,-2.9365,-2.9377,-2.9381,-2.9441,-2.9389,-2.9392,-2.9394,-2.9396,-2.9546,-2.9548,0,0,0,0,0,0,-2.9253,-2.926,-2.9337,-2.934,-2.9281,-2.9311,-2.9316,-2.9336,-2.9356,-2.9358,-2.9334,-2.9331,-2.9373,-2.9377,-2.9383,-2.945,-2.9393,-2.9396,-2.9398,-2.9544,-2.9547,-2.9549,0,0,0,0,0,0,-2.9251,-2.926,-2.9335,-2.9299,-2.9308,-2.9315,-2.9338,-2.9338,-2.935,-2.936,-2.9361,-2.9346,-2.9371,-2.9378,-2.9423,-2.9451,-2.9398,-2.9401,-2.9542,-2.9545,-2.9548,-2.9586,0,0,0,0,0,0,-2.9248,-2.926,-2.9283,-2.93,-2.9311,-2.9376,-2.9339,-2.934,-2.9357,-2.9353,-2.9372,-2.9373,-2.937,-2.9418,-2.9427,-2.9455,-2.9403,-2.954,-2.9543,-2.9547,-2.9583,-2.959,-2.9597,0,0,0,0,0,-2.9244,-2.9293,-2.9284,-2.9294,-2.934,-2.9378,-2.9384,-2.938,-2.9359,-2.9381,-2.9387,-2.9372,-2.9447,-2.9423,-2.9432,-2.9462,-2.9538,-2.9542,-2.9547,-2.9579,-2.9589,-2.9597,0,0,0,0,0,0,-2.9279,-2.9295,-2.9286,-2.9341,-2.9358,-2.9373,-2.9402,-2.9391,-2.9414,-2.941,-2.9404,-2.9408,-2.9455,-2.9463,-2.9436,-2.9518,-2.9489,-2.9495,-2.951,-2.9519,-2.9526,-2.9523,-2.9406,0,0,0,0,0,-2.9293,-2.9323,-2.9335,-2.9383,-2.9392,-2.9395,-2.9412,-2.9408,-2.9425,-2.9432,-2.9441,-2.9458,-2.9485,-2.9503,-2.9529,-2.9584,-2.9586,-2.9609,-2.9616,-2.9621,-2.9626,-2.9653,-2.9662,-2.9564,-2.9564,-2.9563,0,0,-2.9322,-2.9334,-2.9354,-2.939,-2.9403,-2.9433,-2.9402,-2.9436,-2.9458,-2.9437,-2.948,-2.9487,-2.9505,-2.9555,-2.9578,-2.9563,-2.9654,-2.9627,-2.9632,-2.9634,-2.9659,-2.9668,-2.9676,-2.9567,-2.9566,-2.9566,0,0,-2.9389,-2.9403,-2.9443,-2.9456,-2.9476,-2.9477,-2.9487,-2.9503,-2.9507,-2.955,-2.9534,-2.956,-2.9607,-2.962,-2.9633,-2.9703,-2.9689,-2.9711,-2.9748,-2.9774,-2.9782,-2.9789,-2.9811,-2.9819,-2.9717,-2.9717,-2.9717,0,-2.9423,-2.9469,-2.9465,-2.9499,-2.9514,-2.9497,-2.9535,-2.9548,-2.9575,-2.9586,-2.957,-2.9627,-2.9638,-2.9689,-2.9706,-2.9718,-2.9726,-2.9709,-2.9781,-2.9788,-2.9794,-2.9815,-2.9824,-2.9719,-2.9719,-2.9719,-2.9719,0,-2.9507,-2.9539,-2.9568,-2.9594,-2.9613,-2.9649,-2.9649,-2.9668,-2.9662,-2.9665,-2.9707,-2.972,-2.9746,-2.9759,-2.9753,-2.9808,-2.9798,-2.9782,-2.9752,-2.9806,-2.9826,-2.9834,-2.9723,-2.9722,-2.9721,-2.9721,0,0,-2.9598,-2.9619,-2.963,-2.964,-2.966,-2.9683,-2.9718,-2.9744,-2.9759,-2.9778,-2.9806,-2.9845,-2.9829,-2.9844,-2.9839,-2.9863,-2.9914,-2.9843,-2.9843,-2.9854,-2.9972,-2.9982,-2.9992,-2.9906,-2.9907,-2.9908,-2.9969,0,-2.9665,-2.9725,-2.9722,-2.9778,-2.9806,-2.9789,-2.9819,-2.9833,-2.9836,-2.9859,-2.9863,-2.989,-2.9868,-2.9876,-2.9899,-2.9903,-2.9937,-2.9899,-2.9929,-2.993,-2.9923,-3.0003,-3.0014,-3.0071,-2.9977,-2.9979,-2.998,0,-2.9751,-2.9772,-2.9831,-2.9843,-2.9855,-2.9882,-2.9903,-2.9926,-2.9941,-2.9942,-2.9957,-2.9948,-2.9981,-2.9952,-2.9997,-2.9971,-2.9983,-2.9987,-2.9989,-2.9989,-2.9957,-3.0003,-3.009,-3.0097,-2.9992,-2.9991,-2.999,0,-2.9807,-2.985,-2.989,-2.99,-2.9917,-2.9935,-2.9943,-2.9956,-2.9971,-2.999,-2.9999,-3.0022,-3.0034,-3.0051,-3.0048,-3.0028,-3.0092,-3.0064,-3.0092,-3.0092,-3.0105,-3.0104,-3.0192,-3.0117,-3.0117,-3.0116,-3.0116,0,-2.9881,-2.9917,-2.9915,-2.994,-2.9979,-2.9974,-3.0012,-3.0018,-3.0029,-3.0053,-3.0041,-3.0063,-3.0059,-3.0081,-3.0079,-3.0114,-3.0121,-3.0121,-3.0119,-3.012,-3.012,-3.0127,-3.0122,-3.0119,-3.0118,-3.0118,-3.0117,0,-2.995,-2.9951,-2.9993,-3.0005,-3.0008,-3.0036,-3.0046,-3.0068,-3.007,-3.01,-3.0107,-3.011,-3.0135,-3.0134,-3.0163,-3.0161,-3.0204,-3.0199,-3.0198,-3.0196,-3.0224,-3.022,-3.0317,-3.0329,-3.0248,-3.0249,-3.025,0,-2.9996,-3.0023,-3.0037,-3.0052,-3.0061,-3.0086,-3.01,-3.0096,-3.0111,-3.0129,-3.0149,-3.0173,-3.0191,-3.0232,-3.0236,-3.0257,-3.0251,-3.0284,-3.0254,-3.0254,-3.0249,-3.0246,-3.0247,-3.0289,-3.029,-3.0291,-3.0291,0,-3.0077,-3.0075,-3.0097,-3.0118,-3.0135,-3.0152,-3.0167,-3.018,-3.0177,-3.0195,-3.022,-3.0234,-3.0263,-3.0286,-3.0306,-3.0313,-3.0301,-3.0301,-3.0308,-3.0308,-3.0306,-3.0305,-3.0211,-3.0298,-3.0298,-3.0297,-3.0297,-3.0296,-3.0134,-3.0156,-3.0168,-3.0192,-3.0203,-3.0216,-3.0237,-3.0241,-3.0262,-3.0284,-3.0281,-3.0308,-3.032,-3.0346,-3.0354,-3.0375,-3.0363,-3.0374,-3.0377,-3.0379,-3.0381,-3.0304,-3.0379,-3.0379,-3.0379,-3.0379,-3.0378,0,-3.0211,-3.0218,-3.024,-3.026,-3.0278,-3.0266,-3.0282,-3.0297,-3.0322,-3.0334,-3.0352,-3.038,-3.0402,-3.0407,-3.0428,-3.0443,-3.0438,-3.0448,-3.0446,-3.0447,-3.0391,-3.0382,-3.0452,-3.0452,-3.0452,-3.0452,-3.0452,-3.0452,-3.0253,-3.0288,-3.0288,-3.0328,-3.0334,-3.0361,-3.0371,-3.0383,-3.0392,-3.0423,-3.0441,-3.0445,-3.0453,-3.0474,-3.0493,-3.0494,-3.0501,-3.0513,-3.0511,-3.0459,-3.0451,-3.0444,-3.0435,-3.0515,-3.0515,-3.0565,-3.0565,-3.0566]}]]